Flag for Canada Weather past 2 weeks in Coquitlam, British Columbia, Canada

Now
48 °F

Cool.


Feels Like: 47 °F
Forecast: 49 / 53 °F
Wind: 3 mph from East

Location: P. Meadows Coastal Station

Current Time: Oct 25, 2014 at 4:39:21 AM

Latest Report: Oct 25, 2014 at 4:00 AM


Visibility: N/A

Pressure: 29.63 "Hg

Humidity: 92%

Dew point: 46 °F

Location of CoquitlamLocation

Historic Weather in Coquitlam — Graph

°F

Coquitlam temperature yesterday

Maximum temperature yesterday: 55 °F (at 2:00 PM)
Minimum temperature yesterday: 47 °F (at 1:00 AM)
Average temperature yesterday: 50 °F

Past Weeks' High & Low Weather Summary

 TemperatureHumidityPressure
High71 °F (Oct 19, 1:00 PM)100% (Oct 14, 9:00 PM)30.24 "Hg (Oct 14, 9:00 PM)
Low46 °F (Oct 23, 8:00 PM)54% (Oct 19, 1:00 PM)29.50 "Hg (Oct 22, 8:00 PM)
Average55 °F89%29.83 "Hg
* Reported Oct 10 3:00 AM — Oct 25 3:00 AM, Coquitlam, Weather by CustomWeather, © 2014

Note: Actual official high and low records may vary slightly from our data, if they occured in-between our weather recording intervals... More about our weather records

Advertising

Coquitlam weather history for previous 24 hours

 ConditionsComfort  
Time TempWeatherWind HumidityBarometerVisibility
3:00 AM
Oct 25
49 °FCool.5 mph88%29.70 "HgN/A
2:00 AM48 °FCool.3 mph94%29.75 "HgN/A
1:00 AM49 °FCool.1 mph89%29.79 "HgN/A
12:00 AM47 °FCool.No wind96%29.83 "HgN/A
11:00 PM
Oct 24
49 °FCool.1 mph90%29.84 "HgN/A
10:00 PM49 °FCool.1 mph90%29.86 "HgN/A
9:00 PM50 °FCool.2 mph86%29.87 "HgN/A
8:00 PM50 °FCool.1 mph85%29.89 "HgN/A
7:00 PM51 °FCool.No wind80%29.90 "HgN/A
6:00 PM53 °FCool.2 mph71%29.92 "HgN/A
5:00 PM54 °FCool.5 mph70%29.95 "HgN/A
4:00 PM55 °FCool.6 mph70%29.98 "HgN/A
3:00 PM54 °FCool.6 mph73%30.00 "HgN/A
2:00 PM55 °FCool.9 mph68%30.03 "HgN/A
1:00 PM54 °FCool.10 mph74%30.05 "HgN/A
12:00 PM52 °FCool.8 mph79%30.07 "HgN/A
11:00 AM52 °FCool.8 mph81%30.08 "HgN/A
10:00 AM50 °FCool.8 mph87%30.08 "HgN/A
9:00 AM49 °FCool.3 mph91%30.08 "HgN/A
8:00 AM47 °FCool.1 mph99%30.07 "HgN/A
7:00 AM47 °FCool.2 mph99%30.05 "HgN/A
6:00 AM49 °FCool.5 mph90%30.03 "HgN/A
5:00 AM49 °FCool.5 mph94%30.03 "HgN/A
4:00 AM48 °FCool.2 mph95%30.03 "HgN/A
Weather by CustomWeather, © 2014

See weather overviewHow to use our weather pages